NOAA 16 DEB, 41082

Orbit data source: Space-Track

NOAA 16 DEB, 41082 is space debris in SSO originally from a launch on Thu, 21 Sep 2000 UTC launched from the Air Force Western Test Range (AFWTR). Debris objects in space refer to the collection of defunct objects orbiting the Earth. Examples of debris include non-operational satellites, rocket bodies, and fragments generated from explosions, collisions, or faulty payload assembly.

Loading next visibility...
Identifier
41082, 2000-055AR
Orbit
SSO
Country
Flag of USUS
Related business
Manufacturer
Unknown
Mission
Spacecraft
Bus & Motor
Unknown
Mass
Unknown
Launch date (UTC)
2000-09-21 (26 years ago)
Launch vehicle
Unknown
Launch site
Air Force Western Test Range (AFWTR)
Object type
Payload
Rocket body
Debris
Shape & HBR
Unknown shape, 0.1 m
Radar Cross Section
Medium (>0.1 m² and <1 m²)

Expand to show TLE details & history
Last TLE update: 2 days ago

TLE from 2 days ago
0 NOAA 16 DEB
1 41082U 00055AR  26171.30533793  .00000419  00000-0  43559-3 0  9998
2 41082  98.7696 295.5612 0218307 190.5816 169.0700 13.70684659527784
Epoch: 2026-06-20T07:19Z
TLE epoch observation values (Epoch: 2026-06-20T07:19:41.197Z)
Latitude
0.00003°
Longitude
-82.88233°
Altitude
1,158.198 km
Speed
7.196 km/s
True Right ascension
19h 42m 14s
True Declination
0° 00' 00"
Sunlit
Object was in full shadow at epoch
Visualization orbit readout
Latitude
Unknown
Longitude
Unknown
Altitude
Unknown
Speed
Unknown
Apparent Right ascension
Unknown
Apparent Declination
Unknown
Sunlit
N/A
Visualization observer readout
Local Sidereal Time
21:58:16
Azimuth
Unknown
Elevation
Unknown
Doppler factor
Unknown
Orbital elements
Apogee altitude
1,155.286 km
Perigee altitude
833.393 km
Semi-major axis
7,372.477 km
Eccentricity
0.02183
Inclination
98.7696°
RAAN
295.5612°
Arg. of periapsis
190.5816°
True anomaly
169.53194°
Mean anomaly
169.07°
Eccentric anomaly
169.30219°
Mean motion
3.42865 °/min
Orbital period
105 mins
BSTAR
0.00043559
Loading maneuver chart data...
Computing Atmospheric mass density...
Loading historical data...
Loading historical data...
Loading historical data...
Loading historical data...
Loading historical data...
Loading historical data...
Loading historical data...

Documentation

Showing up to 5 results
|